Raton, NM

4:56 PM MST on January 16, 2018 (GMT -0700)
Raton Municipal-Crews

Weather History for KRTN - January, 2013

Change the Weather History Date:

Friday, January 25, 2013

  Actual Average (KTAD) Record (KTAD)
Temperature  
Mean Temperature 40 °F -  
Max Temperature 53 °F 48 °F 68 °F (1953)
Min Temperature 28 °F 18 °F -4 °F (1988)
Degree Days  
Heating Degree Days 24    
Moisture  
Dew Point 22 °F    
Average Humidity 49    
Maximum Humidity 72    
Minimum Humidity 25    
Precipitation  
Precipitation 0.00 in - - ()
Sea Level Pressure  
Sea Level Pressure 30.11 in    
Wind  
Wind Speed 6 mph (SW)    
Max Wind Speed 21 mph    
Max Gust Speed 21 mph    
Visibility 10 miles    
Events      
Averages and records for this station are not official NWS values.
T = Trace of Precipitation, MM = Missing Value Source: NWS Daily Summary

Daily Weather History Graph

Daily Weather History Graph

Search for Another Location

Airport or City:

Trip Planner

Search our weather history database for the weather conditions in past years. The results will help you decide how hot, cold, wet, or windy it might be!

Date:

Astronomy

Jan. 25, 2013 Rise Set
Actual Time 7:04 AM MST 5:16 PM MST
Civil Twilight 6:37 AM MST 5:44 PM MST
Nautical Twilight 6:05 AM MST 6:15 PM MST
Astronomical Twilight 5:35 AM MST 6:46 PM MST
Moon 4:15 PM MST (1/25) 5:45 AM MST (1/25)
Length of Visible Light 11h 06m
Length of Day
10h 11m
Waxing Gibbous, 98% of the Moon is Illuminated
Jan 25
Waxing Gibbous
Jan 26
Full
Feb 3
Last Quarter
Feb 10
New
Feb 17
First Quarter

Hourly Weather History & Observations

Time (MST) Temp. Windchill Dew Point Humidity Pressure Visibility Wind Dir Wind Speed Gust Speed Precip Events Conditions
12:53 AM 36.0 °F - 23.0 °F 59% 30.07 in 10.0 mi Calm Calm - N/A   Clear
1:53 AM 37.0 °F 32.4 °F 21.9 °F 54% 30.08 in 10.0 mi North 5.8 mph - N/A   Clear
2:53 AM 37.0 °F 31.6 °F 23.0 °F 57% 30.09 in 10.0 mi NE 6.9 mph - N/A   Clear
3:53 AM 37.9 °F 34.4 °F 24.1 °F 57% 30.09 in 10.0 mi North 4.6 mph - N/A   Clear
4:53 AM 39.0 °F 35.7 °F 25.0 °F 57% 30.08 in 10.0 mi NNW 4.6 mph - N/A   Clear
5:53 AM 37.9 °F - 24.1 °F 57% 30.10 in 10.0 mi Calm Calm - N/A   Clear
6:53 AM 37.0 °F 31.6 °F 24.1 °F 59% 30.13 in 10.0 mi NNW 6.9 mph - N/A   Clear
7:53 AM 37.0 °F 33.3 °F 23.0 °F 57% 30.19 in 10.0 mi NNE 4.6 mph - N/A   Clear
8:53 AM 45.0 °F 43.5 °F 23.0 °F 42% 30.18 in 10.0 mi ESE 3.5 mph - N/A   Clear
9:53 AM 44.1 °F 42.5 °F 21.9 °F 42% 30.24 in 10.0 mi South 3.5 mph - N/A   Clear
10:53 AM 48.9 °F - 21.0 °F 33% 30.20 in 10.0 mi SSW 10.4 mph - N/A   Clear
11:53 AM 52.0 °F - 21.9 °F 31% 30.17 in 10.0 mi SSW 15.0 mph 20.7 mph N/A   Clear
12:53 PM 53.1 °F - 19.0 °F 26% 30.10 in 10.0 mi South 17.3 mph - N/A   Clear
1:53 PM 53.1 °F - 19.0 °F 26% 30.07 in 10.0 mi SSW 16.1 mph - N/A   Scattered Clouds
2:53 PM 53.1 °F - 18.0 °F 25% 30.04 in 10.0 mi South 20.7 mph - N/A   Clear
3:53 PM 50.0 °F - 19.9 °F 31% 30.06 in 10.0 mi South 13.8 mph - N/A   Clear
4:53 PM 46.0 °F 41.4 °F 21.9 °F 39% 30.06 in 10.0 mi South 9.2 mph - N/A   Clear
5:53 PM 42.1 °F 37.7 °F 21.9 °F 45% 30.09 in 10.0 mi SSW 6.9 mph - N/A   Clear
6:53 PM 37.9 °F 33.5 °F 21.9 °F 53% 30.12 in 10.0 mi WSW 5.8 mph - N/A   Clear
7:53 PM 34.0 °F 29.8 °F 21.9 °F 61% 30.14 in 10.0 mi NW 4.6 mph - N/A   Clear
8:53 PM 33.1 °F - 21.9 °F 64% 30.11 in 10.0 mi Calm Calm - N/A   Clear
9:53 PM 32.0 °F 24.8 °F 21.9 °F 66% 30.12 in 10.0 mi NNE 8.1 mph - N/A   Clear
10:53 PM 28.9 °F 21.9 °F 21.0 °F 72% 30.09 in 10.0 mi NE 6.9 mph - N/A   Clear
11:53 PM 28.9 °F - 21.0 °F 72% 30.07 in 10.0 mi Calm Calm - N/A   Clear